This demonstration page uses our WeatherBlox Daily Observations layout. Learn more.

Left ArrowRight Arrow

Hourly Observations for July 1, 2021

Temp ( °F °C ) Dew Point ( °F °C ) Humidity (%) Winds ( mph kmh ) Pressure ( in mb ) Visibility ( mi km ) Precip ( " mm )
12:53 am 00:53 Clear 73 22.8 45 7.2 37 37 E 16 26 29.87 1011 10 16 N/A
1:53 am 01:53 Clear 73 22.8 48 8.9 41 41 E 16 26 29.86 1011 10 16 N/A
2:53 am 02:53 Clear 70 21.1 48 8.9 46 46 E 17 28 29.85 1011 10 16 N/A
3:53 am 03:53 Clear 69 20.6 49 9.4 49 49 E 14 22 29.84 1011 10 16 N/A
4:53 am 04:53 Clear 65 18.3 50 10 59 59 NE 10 17 29.84 1010 10 16 N/A
5:53 am 05:53 Sunny 65 18.3 50 10 59 59 ENE 12 19 29.83 1010 10 16 N/A
6:53 am 06:53 Sunny 67 19.4 50 10 55 55 ENE 12 19 29.84 1010 10 16 N/A
7:53 am 07:53 Sunny 73 22.8 50 10 44 44 ENE 14 22 29.84 1010 10 16 N/A
8:53 am 08:53 Sunny 80 26.7 50 10 35 35 ENE 12 19 29.84 1010 10 16 N/A
9:53 am 09:53 Sunny 92 33.3 49 9.4 23 23 E 9 15 29.82 1010 10 16 N/A
10:53 am 10:53 Sunny 96 35.6 44 6.7 17 17 SSE 25 41 29.80 1009 10 16 N/A
11:53 am 11:53 Sunny 97 36.1 42 5.6 15 15 SE 17 28 29.80 1009 10 16 N/A
12:53 pm 12:53 Sunny 98 36.7 40 4.4 13 13 SSE 14 22 29.88 1012 10 16 N/A
1:53 pm 13:53 Sunny 100 37.8 39 3.9 12 12 VRB 6 9 29.78 1009 10 16 N/A
2:53 pm 14:53 Sunny 99 37.2 38 3.3 12 12 ESE 6 9 29.77 1008 10 16 N/A
3:53 pm 15:53 Sunny 100 37.8 41 5 13 13 E 8 13 29.75 1008 10 16 N/A
4:22 pm 16:22 Sunny 100 37.8 42 5.6 14 14 E 10 17 29.57 1001 10 16 N/A
4:53 pm 16:53 Sunny 100 37.8 43 6.1 14 14 ESE 12 19 29.74 1007 10 16 N/A
5:53 pm 17:53 Sunny 100 37.8 43 6.1 14 14 ESE 9 15 29.72 1006 10 16 N/A
6:53 pm 18:53 Sunny 99 37.2 44 6.7 15 15 E 12 19 29.70 1006 10 16 N/A
7:53 pm 19:53 Sunny 96 35.6 46 7.8 18 18 E 14 22 29.70 1006 10 16 N/A
8:53 pm 20:53 Sunny 92 33.3 47 8.3 21 21 ESE 13 20 29.78 1008 10 16 N/A
9:53 pm 21:53 Clear 85 29.4 46 7.8 26 26 E 10 17 29.70 1006 10 16 N/A
10:53 pm 22:53 Clear 83 28.3 46 7.8 27 27 ESE 8 13 29.69 1005 10 16 N/A
11:53 pm 23:53 Clear 85 29.4 44 6.7 24 24 WNW 5 7 29.70 1006 10 16 N/A

Powered by AerisWeather